Zurück zum Katalog

SL-16 DEB

AktivLEO
NORAD 43374·DEBRIS·🇷🇺 Russia

Gestartet Jun 29, 2007 von Baikonur Cosmodrome

Loading…

Nächste Überflüge (nächste 24 Stunden)

TLE

AktuellSource: Space-Track

Epoche: Sep 13, 2026, 03:53 UTC

1 43374U 07029R   26256.16203240  .00002250  00000-0  15790-2 0  9991
2 43374  71.0656  77.8796 0185727 132.7024 228.9898 13.91325354644210

Verfolge SL-16 DEB in Echtzeit mit AllMySat

Download on the App Store